Regional Weather Roundup
Issued by NWS

Home | Current Version | Previous Version | Text Only | Print | Product List | Glossary On
Versions: 1 2 3 4 5 6 7 8 9 10 11 12 13 14 15 16 17 18 19 20 21 22 23 24 25 26 27 28 29 30 31 32 33 34 35 36 37 38 39 40 41 42 43 44 45 46 47 48 49 50
000
ASUS43 KBIS 010210
RWRND

NORTH DAKOTA REGIONAL WEATHER ROUNDUP
NATIONAL WEATHER SERVICE BISMARCK ND
900 PM CDT WED AUG 31 2016

NOTE: "FAIR" INDICATES FEW OR NO CLOUDS BELOW 12,000 FEET WITH NO
SIGNIFICANT WEATHER AND/OR OBSTRUCTIONS TO VISIBILITY.


NDZ001>003-009>011-017-010300-
NORTHWEST NORTH DAKOTA

CITY           SKY/WX    TMP DP  RH WIND       PRES   REMARKS
WILLISTON      CLEAR     86  48  26 SE9       29.98R
MINOT          CLEAR     71  56  58 SE10      30.09S
MINOT AFB      CLEAR     68  59  74 E15       30.09R
$$

NDZ018>021-031>035-040>046-010300-
SOUTHWEST NORTH DAKOTA

CITY           SKY/WX    TMP DP  RH WIND       PRES   REMARKS
BISMARCK       CLEAR     68  63  84 E10       30.16S
DICKINSON      CLEAR     75  49  39 SE14      30.08R
GARRISON         N/A     69  62  78 SE16G24   30.12R
HETTINGER ARPT CLEAR     76  54  46 SE10      30.12R
$$

NDZ004>008-012>016-024-026-027-054-010300-
NORTHEAST NORTH DAKOTA

CITY           SKY/WX    TMP DP  RH WIND       PRES   REMARKS
GRAND FORKS    CLOUDY    67  55  65 E6        30.20S
GRND FRKS AFB  CLOUDY    66  55  67 E6        30.21S
DEVILS LAKE    CLOUDY    67  56  67 E15       30.21R
$$

NDZ022-023-025-028>030-036>039-047>053-010300-
SOUTHEAST NORTH DAKOTA

CITY           SKY/WX    TMP DP  RH WIND       PRES   REMARKS
FARGO          CLOUDY    66  57  72 E7        30.20R
JAMESTOWN      PTCLDY    64  57  78 E6        30.20S
$$





USA.gov is the U.S. government's official web portal to all federal, state and local government web resources and services.